COSMOS 1275 DEB, 42214

Orbit data source: Space-Track

COSMOS 1275 DEB, 42214 is space debris in LEO originally from a launch on Thu, 04 Jun 1981 UTC launched from the Plesetsk Missile And Space Complex (PKMTR). Debris objects in space refer to the collection of defunct objects orbiting the Earth. Examples of debris include non-operational satellites, rocket bodies, and fragments generated from explosions, collisions, or faulty payload assembly.

Loading next visibility...
Identifier
42214, 1981-053UE
Orbit
LEO
Country
Flag of CISCIS
Related business
Manufacturer
Unknown
Mission
Spacecraft
Bus & Motor
Unknown
Mass
Unknown
Launch date (UTC)
1981-06-04 (45 years ago)
Launch vehicle
Unknown
Launch site
Plesetsk Missile And Space Complex (PKMTR)
Object type
Payload
Rocket body
Debris
Shape & HBR
Unknown shape, 0.1 m
Radar Cross Section
Small (<0.1 m²)

Expand to show TLE details & history
Last TLE update: 2 months ago

TLE from 2 months ago
0 COSMOS 1275 DEB
1 42214U 81053UE  26102.92297235  .00000864  00000-0  78138-3 0  9998
2 42214  83.0244 184.0343 0080314 322.7141  36.8459 13.81317330 47933
Epoch: 2026-04-12T22:09Z
TLE epoch observation values (Epoch: 2026-04-12T22:09:04.811Z)
Latitude
0.00003°
Longitude
10.64329°
Altitude
915.133 km
Speed
7.418 km/s
True Right ascension
12h 16m 08s
True Declination
0° 00' 00"
Sunlit
Object was in full shadow at epoch
Visualization orbit readout
Latitude
Unknown
Longitude
Unknown
Altitude
Unknown
Speed
Unknown
Apparent Right ascension
Unknown
Apparent Declination
Unknown
Sunlit
N/A
Visualization observer readout
Local Sidereal Time
09:32:31
Azimuth
Unknown
Elevation
Unknown
Doppler factor
Unknown
Orbital elements
Apogee altitude
1,015.261 km
Perigee altitude
897.448 km
Semi-major axis
7,334.492 km
Eccentricity
0.00803
Inclination
83.0244°
RAAN
184.0343°
Arg. of periapsis
322.7141°
True anomaly
37.40225°
Mean anomaly
36.8459°
Eccentric anomaly
37.12363°
Mean motion
3.45532 °/min
Orbital period
104.19 mins
BSTAR
0.00078138
Loading maneuver chart data...
Computing Atmospheric mass density...
Loading historical data...
Loading historical data...
Loading historical data...
Loading historical data...
Loading historical data...
Loading historical data...
Loading historical data...

Documentation

Showing up to 5 results
|